Location: Altamira
(10.5079°N, 66.8544°W)
Time: 17:22:25
(UTC+00:00)

Cosmos 2219 - Pass Details

Date: 13 December 2025
Orbit: 831 x 860 km, 71.1° (Epoch: 13 January)

Event Time Altitude Azimuth Distance (km) Brightness Sun altitude
Rises 22:54:37 0° 3° (N) 3,424 6.1 -11.6°
Reaches altitude 10° 22:57:26 10° 15° (NNE) 2,488 5.3 -12.2°
Maximum altitude 23:02:14 27° 72° (ENE) 1,573 4.0 -13.3°
Drops below altitude 10° 23:07:00 10° 129° (SE) 2,485 5.4 -14.4°
Sets 23:09:48 0° 141° (SE) 3,418 6.2 -15.0°
